www.pogodaiklimat.ru

Погода и климат >> Архив погоды >> Россия >> Краснодарский край >> Геленджик


АРХИВ ПОГОДЫ в Геленджике

Время (UTC), дата Ветер
(напр.,м/с)
 
Видим.   Явления Облачность Т
(С)
Тd
(С)
f
(%)
Тe
(С)
Тes
(С)
Комфортность P
(гПа)
Po
(гПа)
Тmin
(С)
Tmax
(С)
R
(мм)
R24
(мм)
S
(см)
06 9.01 СЗ 3 50 км 10/3 600 м
[Sc Ac und]
+0.7 -4.6 68 -3 -3 по сезону 1012.8 1010.8 +0.3
09 9.01 СЗ 1 50 км 10/4 600 м
[Sc Ac trans Cc]
+2.9 -5.0 56 +2 +3 по сезону 1015.6 1013.6
12 9.01 СЗ 1 50 км 4/3 600 м
[Sc Ac trans Cc]
+4.9 -4.3 51 +4 +6 по сезону 1017.2 1015.2
15 9.01 В 1 10 км 8/4 600 м
[Sc Ac trans Cc]
+3.4 -2.8 64 +2 +2 по сезону 1018.6 1016.6 +5.3
18 9.01 В 2 10 км 10/10 600 м
[Sc]
+4.4 +0.2 74 +2 +2 по сезону 1019.9 1017.9
21 9.01 ЮВ 2 10 км 6/3 600 м
[Sc Cc]
+6.4 -2.7 52 +5 +5 тепло 1020.2 1018.2
00 10.01 ЮВ 4 10 км 10/10 600 м
[Sc]
+7.0 -1.6 54 +4 +4 тепло 1021.1 1019.1
03 10.01 ЮВ 5-12
{12}
10 км 6/6 600 м
[Sc]
+7.5 -1.1 54 +4 +4 тепло 1019.9 1017.9 +2.9
06 10.01 ЮВ 6-12
{13}
50 км 10/10 600 м
[Cb cap]
+8.2 +0.1 57 +5 +5 тепло 1020.5 1018.5
09 10.01 ЮВ 4-13
{14}
50 км 10/8 600 м
[Sc Ac trans Cc]
+8.9 +1.0 58 +6 +7 тепло 1019.5 1017.5
12 10.01 ЮВ 5-14
{14}
50 км 10/10 600 м
[]
+9.3 +2.5 62 +6 +6 тепло 1018.4 1016.4
15 10.01 ЮВ 6-12
{15}
10 км слаб. ливневой дождь 10/10 600 м
[Cb cap]
+8.1 +2.8 69 +4 +4 по сезону 1018.5 1016.5 +9.7 0.3
18 10.01 ЮВ 4-11
{14}
10 км слаб. ливневой дождь 10/10 600 м
[Cb cap]
+7.7 +2.9 72 +5 +5 тепло 1018.9 1016.9
21 10.01 ЮВ 4
{13}
10 км слаб. ливневой дождь 10/10 600 м
[Cb cap]
+9.0 +2.9 66 +6 +6 тепло 1018.0 1016.0
00 11.01 ЮВ 5-11
{12}
10 км слаб. ливневой дождь 10/10 600 м
[Cb cap]
+9.9 +4.8 71 +7 +7 тепло 1017.9 1015.9
03 11.01 ЮВ 4
{12}
10 км слаб. ливневой дождь 10/10 600 м
[Cb cap]
+8.8 +5.1 78 +6 +6 тепло 1017.5 1015.5 +7.0 12
06 11.01 ЮВ 6-12
{14}
10 км слаб. ливневой дождь 10/10 600 м
[Cb cap]
+10.5 +5.5 71 +7 +7 тепло 1017.4 1015.4
09 11.01 ЮВ 5-13
{14}
20 км {ливн. осадки} 10/10 1000 м
[Sc]
+10.8 +6.0 72 +8 +8 тепло 1016.3 1014.3
12 11.01 ЮВ 4-13
{15}
10 км в посл. час ливневой дождь 10/4 600 м
[Cb cap Ac und]
+10.8 +6.2 73 +8 +9 тепло 1015.2 1013.2
15 11.01 ЮВ 5-11
{13}
10 км 10/4 600 м
[Sc Ac und]
+10.9 +6.5 74 +8 +8 тепло 1015.4 1013.4 +11.0 0.7
18 11.01 ЮВ 4
{12}
10 км слаб. дождь 10/3 600 м
[Sc As op]
+10.3 +7.2 81 +8 +8 тепло 1014.7 1012.7
21 11.01 ЮВ 3 10 км слаб. дождь 10/0 600 м
[As op]
+9.9 +6.9 82 +8 +8 тепло 1013.4 1011.4
00 12.01 ЮЗ 5 10 км {дождь} 10/6 300 м
[Frnb Ac As]
+9.5 +5.9 78 +6 +6 тепло 1013.4 1011.4
03 12.01 ЮЗ 6-10
{11}
10 км 10/4 600 м
[Cb cap Ac und]
+8.2 +3.9 74 +4 +4 тепло 1013.4 1011.4 +8.0 3
06 12.01 ЮЗ 4
{11}
20 км 10/6 600 м
[Cb cap Ac As]
+7.7 +1.1 63 +5 +5 тепло 1014.8 1012.8 +7.6
09 12.01 З 2
{10}
20 км 10/6 1000 м
[Sc Ac As]
+7.3 +2.0 69 +5 +6 тепло 1014.0 1012.0
12 12.01 ЮЗ 2 20 км 10/6 600 м
[Sc Ac und]
+7.3 +0.8 63 +6 +6 тепло 1013.0 1011.0
15 12.01 З 1 10 км 10/8 600 м
[Sc Ac und]
+7.2 +1.4 67 +7 +7 тепло 1012.4 1010.4 +8.2
18 12.01 СВ 2 10 км слаб. ливневой дождь 10/8 600 м
[Cb cap Ac und]
+7.1 +2.2 71 +5 +5 тепло 1011.1 1009.1
21 12.01 ЮЗ 4 10 км слаб. ливневой дождь 10/10 300 м
[Cb cap]
+6.2 +3.6 83 +2 +2 по сезону 1009.8 1007.8
00 13.01 З 3 10 км слаб. ливневой дождь 10/10 300 м
[Cb cap]
+6.5 +4.1 85 +3 +3 тепло 1008.4 1006.4
03 13.01 СЗ 2 10 км слаб. ливневой дождь 10/10 600 м
[Cb cap]
+4.3 +2.5 88 +1 +1 по сезону 1008.0 1006.0 +4.3 8
06 13.01 С 1 20 км {ливн. осадки} 10/6 600 м
[Sc Ac und]
+3.4 +1.3 86 +2 +2 по сезону 1009.1 1007.1 +3.3
09 13.01 Ю 1 50 км 8/4 600 м
[Sc Ac trans]
+5.7 -0.4 65 +5 +7 тепло 1009.2 1007.2
12 13.01 З 3 20 км 10/4 600 м
[Cb cap Ac und]
+5.3 +0.3 70 +2 +2 по сезону 1009.3 1007.3
15 13.01 З 1 10 км 10/6 600 м
[Sc Ac und]
+4.4 -0.4 71 +3 +3 по сезону 1009.4 1007.4 +6.3 1
18 13.01 С 1 10 км 10/4 600 м
[Sc Ac und]
+3.3 -1.4 71 +2 +2 по сезону 1009.0 1007.0
21 13.01 В 1 10 км 10/0
[Ac As]
+3.4 -0.9 73 +2 +2 по сезону 1008.4 1006.4
00 14.01 СВ 1 10 км 10/0
[Ac As]
+3.8 -1.1 70 +3 +3 тепло 1007.1 1005.1
03 14.01 В 1 10 км {дождь} 10/4 1000 м
[Sc As op]
+6.0 +1.9 75 +5 +5 тепло 1005.7 1003.7 +3.0 0.0
06 14.01 СЗ 1 10 км слаб. ливневой дождь 10/10 600 м
[Cb cap]
+7.3 +2.3 71 +7 +7 тепло 1005.3 1003.3
09 14.01 В 1 10 км слаб. ливневой дождь 10/10 600 м
[Cb cap]
+7.5 +4.7 82 +7 +7 тепло 1004.5 1002.5
12 14.01 В 4 20 км в посл. час ливневой дождь 10/10 600 м
[Cb cap]
+9.5 +6.0 79 +7 +7 тепло 1002.5 1000.5
15 14.01 ЮВ 6-11
{12}
10 км слаб. ливневой дождь 10/10 600 м
[Cb cap]
+9.7 +6.6 81 +6 +6 тепло 1002.2 1000.3 +9.9 1
18 14.01 ЮЗ 3
{14}
10 км слаб. ливневой дождь {гроза} 10/10 600 м
[Cb cap]
+8.3 +5.8 84 +6 +6 тепло 1003.3 1001.3
21 14.01 З 2
{10}
10 км слаб. ливневой дождь 10/10 600 м
[Cb cap]
+8.4 +3.2 70 +7 +7 тепло 1004.4 1002.4
00 15.01 ЮВ 2 10 км в посл. час ливневой дождь 10/10 600 м
[Cb cap]
+8.9 +2.1 62 +7 +7 тепло 1004.2 1002.2
03 15.01 СВ 1 10 км 10/10 600 м
[Cb cap]
+9.5 +1.4 57 +9 +9 тепло 1004.0 1002.0 +7.7 6
06 15.01 ЮВ 3 50 км 10/3 600 м
[Sc diur, vesp Ac trans Cc]
+10.4 +4.1 65 +9 +9 тепло 1003.9 1002.0
09 15.01 ЮВ 5 10 км слаб. ливневой дождь 10/10 600 м
[Cb cap]
+10.9 +7.0 77 +8 +8 тепло 1003.9 1002.0
12 15.01 ЮВ 5-11
{17}
20 км в посл. час ливневой дождь 10/10 600 м
[Cb cap]
+10.5 +5.9 73 +8 +8 тепло 1002.5 1000.6
15 15.01 СВ 1
{12}
10 км 10/8 600 м
[Cb cap Ac und]
+11.6 +6.6 71 +12 +12 тепло 999.7 997.8 +11.7 2
18 15.01 ЮВ 5-10
{10}
10 км слаб. ливневой дождь 10/10 600 м
[Cb cap]
+10.9 +6.5 74 +8 +8 тепло 999.0 997.1
21 15.01 В 3
{12}
10 км слаб. ливневой дождь 10/10 600 м
[Cb cap]
+9.8 +8.6 92 +7 +7 тепло 997.1 995.2
00 16.01 ЮВ 5-10
{12}
10 км слаб. ливневой дождь 10/10 600 м
[Cb cap]
+11.3 +7.5 77 +9 +9 тепло 994.4 992.5

 

Местоположение метеостанции Геленджик (Краснодарский край, Россия): широта 44.57 долгота 38.08 высота над уровнем моря 15 м.

В архиве по умолчанию представлена погода в Геленджике за последнюю неделю. Архивные данные за месяц целиком и за предыдущие месяцы, начиная с января 2011 года, Вы можете получить, выбрав интересующий диапазон дат из раскрывающегося списка и нажав кнопку "Ввод!".


*Определитесь, кто Вы:
робот инопланетянин человек

Внимание! Время в таблицах - всемирное. Для получения местного времени необходимо прибавить поправку, которая равна 3 ч.

Смотрите также архив погоды в соседних городах и на ближайших метеорологических станциях:

Погода в Новороссийске (Краснодарский край, Россия) (25 км)
Погода в Крымске (Краснодарский край, Россия) (39 км)
Погода в Джубге (Краснодарский край, Россия) (57 км)
Погода в Анапе (Краснодарский край, Россия) (72 км)
Погода в Славянске-на-Кубани (Краснодарский край, Россия) (79 км)
Погода в Горячем Ключе (Краснодарский край, Россия) (81 км)
Погода в Краснодаре (Краснодарский край, Россия) (92 км)
Погода в Туапсе (Краснодарский край, Россия) (95 км)
Погода в Горном (Краснодарский край, Россия) (100 км)
Погода в Темрюке (Краснодарский край, Россия) (100 км)

Пояснения к столбцам:

Ветер - указаны скорость ветра в м/с - средняя за 10 мин, порывы в срок и между сроками (в фигурных скобках) и направление, откуда дует ветер: С - северный, СВ - северо-восточный, В - восточный, ЮВ - юго-восточный, Ю - южный, ЮЗ - юго-западный, З - западный, СЗ - северо-западный.
Видимость - горизонтальная дальность видимости в метрах или километрах. При видимости от 1 до 10 км при отсутствии осадков обычно наблюдается дымка, при ухудшении видимости до 1 км и менее - туман. В сухую погоду видимость может ухудшаться дымом, пылью или мглою.
Явления - указаны атмосферные явления, наблюдавшиеся в срок или в последний час перед сроком; фигурными скобками обозначены явления, наблюдавшиеся между сроками (за 1-3 часа до срока); квадратными скобками обозначены град или гололедные отложения с указанием их диаметра в мм.
Облачность - указаны через наклонную черту общая и нижняя облачность в баллах и высота нижней границы облаков в метрах; квадратными скобками обозначены формы облаков: Ci - перистые, Cs - перисто-слоистые, Cc - перисто-кучевые, Ac - высококучевые, As - высокослоистые, Sc - слоисто-кучевые, Ns - слоисто-дождевые, Cu - кучевые, Cb - кучево-дождевые. Подробнее классификацию облаков см. в Атласе облаков (PDF).
T - Температура воздуха - температура, измеренная на высоте 2 м над землей.
Td - Температура точки росы - температура, при понижении до которой содержащийся в воздухе водяной пар достигнет насыщения.
f - Относительная влажность воздуха - влажноcть воздуха, измеренная на высоте 2 м над землей.
Te - Эффективная температура - температура, которую ощущает одетый по сезону человек в тени. Характеристика душности погоды. При расчете учитывается влияние влажности воздуха и скорости ветра на теплоощущения человека.
Tes - Эффективная температура на солнце - температура, которую ощущает человек, с поправкой на солнечный нагрев. Характеристика знойности погоды. Зависит от высоты солнца над горизонтом, облачности и скорости ветра. Ночью, в пасмурную погоду, а также при ветре 12 м/с и более поправка равна нулю.
P - Атмосферное давление - приведенное к уровню моря атмосферное давление.
Po - Атмосферное давление - измеренное на уровне метеостанции атмосферное давление.
Tmin - Минимальная температура - минимум температуры воздуха на высоте 2 м над землей.
Tmax - Максимальная температура - максимум температуры воздуха на высоте 2 м над землей.
R - Количество осадков - Количество выпавших осадков за период времени, мм. При наведении курсора мыши на число - период времени, за который выпало указанное количество осадков.
R24 - Количество осадков - Количество выпавших осадков за 24 часа, мм.
S - Снежный покров - Высота снежного покрова, см. При наведении курсора мыши на число - состояние снежного покрова и степень покрытия местности в баллах.